Manchester, NH

5:55 PM EDT on April 21, 2018 (GMT -0400)
Manchester

Weather History for KMHT - December, 2011

Change the Weather History Date:

Saturday, December 17, 2011

  Actual Average Record
Temperature  
Mean Temperature 30 °F 30 °F  
Max Temperature 37 °F 38 °F 61 °F (2000)
Min Temperature 21 °F 22 °F -14 °F (1951)
Degree Days  
Heating Degree Days 35 35  
Month to date heating degree days 549  
Since 1 July heating degree days 1843  
Cooling Degree Days 0 0  
Month to date cooling degree days 0  
Year to date cooling degree days 642  
Moisture  
Dew Point 18 °F    
Average Humidity 60    
Maximum Humidity 85    
Minimum Humidity 35    
Precipitation  
Precipitation 0.00 in 0.10 in 2.55 in (1888)
Month to date precipitation 1.82  
Year to date precipitation 43.12  
Snow  
Snow 0.00 in - - ()
Month to date snowfall  
Since 1 July snowfall  
Snow Depth -    
Sea Level Pressure  
Sea Level Pressure 30.11 in    
Wind  
Wind Speed 7 mph (NNW)    
Max Wind Speed 16 mph    
Max Gust Speed 24 mph    
Visibility 10 miles    
Events      
T = Trace of Precipitation, MM = Missing Value Source: NWS Daily Summary

Daily Weather History Graph

Daily Weather History Graph

Search for Another Location

Airport or City:

Astronomy

Dec. 17, 2011 Rise Set
Actual Time 7:11 AM EST 4:12 PM EST
Civil Twilight 6:38 AM EST 4:44 PM EST
Nautical Twilight 6:02 AM EST 5:20 PM EST
Astronomical Twilight 5:28 AM EST 5:55 PM EST
Moon No Moon Rise 11:14 AM EST (12/17)
Length of Visible Light 10h 06m
Length of Day
9h 01m
Waning Gibbous, 54% of the Moon is Illuminated
Dec 17
Waning Gibbous
Dec 17
Last Quarter
Dec 24
New
Jan 1
First Quarter
Jan 9
Full

Hourly Weather History & Observations

Time (EST) Temp. Windchill Dew Point Humidity Pressure Visibility Wind Dir Wind Speed Gust Speed Precip Events Conditions
12:53 AM 34.0 °F 31.0 °F 27.0 °F 75% 30.05 in 10.0 mi SE 3.5 mph - N/A   Clear
1:53 AM 32.0 °F - 27.0 °F 82% 30.04 in 10.0 mi Calm Calm - N/A   Clear
2:53 AM 30.9 °F 27.5 °F 27.0 °F 85% 30.06 in 10.0 mi SSE 3.5 mph - N/A   Clear
3:53 AM 32.0 °F 28.7 °F 27.0 °F 82% 30.05 in 10.0 mi SSE 3.5 mph - N/A   Clear
4:53 AM 32.0 °F 26.4 °F 27.0 °F 82% 30.04 in 10.0 mi SE 5.8 mph - N/A   Clear
5:53 AM 32.0 °F 28.7 °F 27.0 °F 82% 30.05 in 10.0 mi SSW 3.5 mph - N/A   Clear
6:53 AM 30.9 °F 26.2 °F 26.1 °F 82% 30.06 in 10.0 mi SSE 4.6 mph - N/A   Clear
7:53 AM 33.1 °F - 27.0 °F 78% 30.08 in 10.0 mi Calm Calm - N/A   Clear
8:22 AM 32.0 °F 26.4 °F 26.6 °F 80% 30.04 in 10.0 mi North 5.8 mph - N/A   Mostly Cloudy
8:53 AM 34.0 °F 26.6 °F 27.0 °F 75% 30.10 in 10.0 mi NNW 9.2 mph - N/A   Scattered Clouds
9:53 AM 36.0 °F 26.3 °F 21.9 °F 57% 30.11 in 10.0 mi NNW 16.1 mph 24.2 mph N/A   Clear
10:53 AM 37.0 °F 28.1 °F 21.0 °F 52% 30.10 in 10.0 mi NNW 15.0 mph 18.4 mph N/A   Clear
11:53 AM 37.0 °F 28.1 °F 18.0 °F 46% 30.09 in 10.0 mi NW 15.0 mph 19.6 mph N/A   Clear
12:53 PM 36.0 °F 27.1 °F 17.1 °F 46% 30.09 in 10.0 mi NNW 13.8 mph 21.9 mph N/A   Clear
1:53 PM 35.1 °F 27.4 °F 16.0 °F 46% 30.09 in 10.0 mi NW 10.4 mph 20.7 mph N/A   Partly Cloudy
2:53 PM 34.0 °F 24.2 °F 14.0 °F 44% 30.12 in 10.0 mi NNW 15.0 mph - N/A   Partly Cloudy
3:53 PM 32.0 °F 23.0 °F 12.9 °F 45% 30.14 in 10.0 mi NNW 11.5 mph - N/A   Partly Cloudy
4:53 PM 30.9 °F 20.7 °F 7.0 °F 37% 30.16 in 10.0 mi North 13.8 mph - N/A   Partly Cloudy
5:53 PM 28.9 °F 19.8 °F 3.9 °F 35% 30.17 in 10.0 mi NNW 10.4 mph - N/A   Clear
6:53 PM 28.4 °F 17.0 °F 8.6 °F 43% 30.13 in 10.0 mi North 15.0 mph - N/A   Clear
7:53 PM 26.1 °F 15.6 °F 8.1 °F 47% 30.20 in 10.0 mi NNW 11.5 mph - N/A   Clear
8:53 PM 25.0 °F 13.6 °F 7.0 °F 46% 30.20 in 10.0 mi North 12.7 mph - N/A   Clear
9:53 PM 24.1 °F 15.2 °F 8.1 °F 51% 30.21 in 10.0 mi NNW 8.1 mph - N/A   Clear
10:53 PM 23.0 °F 15.8 °F 8.1 °F 53% 30.21 in 10.0 mi NNW 5.8 mph - N/A   Clear
11:53 PM 21.0 °F 11.4 °F 8.1 °F 57% 30.21 in 10.0 mi NNW 8.1 mph - N/A   Clear